Flag for United Kingdom Weather past 2 weeks in Cheltenham, England, United Kingdom

Now
50 °F

Cool.


Feels Like: 44 °F
Forecast: N/A
Wind: 17 mph from Southwest

Location: Little Rissington

Current Time: Oct 26, 2014 at 3:45:17 AM

Latest Report: Oct 26, 2014 at 2:00 AM


Visibility: 22 mi

Pressure: 30.11 "Hg

Humidity: 89%

Dew point: 47 °F

Location of CheltenhamLocation

Historic Weather in Cheltenham — Graph

°F

Cheltenham temperature yesterday

Maximum temperature yesterday: 56 °F (at 3:00 PM)
Minimum temperature yesterday: 42 °F (at 5:00 AM)
Average temperature yesterday: 49 °F

Past Weeks' High & Low Weather Summary

 TemperatureHumidityPressure
High64 °F (Oct 17, 1:00 PM)100% (Oct 11, 7:00 AM)30.30 "Hg (Oct 11, 7:00 AM)
Low38 °F (Oct 22, 7:00 AM)63% (Oct 21, 4:00 PM)29.47 "Hg (Oct 16, 12:00 AM)
Average52 °F93%29.84 "Hg
* Reported Oct 11 3:00 AM — Oct 26 2:00 AM, Cheltenham, Weather by CustomWeather, © 2014

Note: Actual official high and low records may vary slightly from our data, if they occured in-between our weather recording intervals... More about our weather records

Advertising

Cheltenham weather history for previous 24 hours

 ConditionsComfort  
Time TempWeatherWind HumidityBarometerVisibility
2:00 AM
Oct 26
50 °FCool.17 mph89%30.11 "Hg22 mi
1:00 AM50 °FCool.14 mph93%30.11 "Hg22 mi
1:00 AM50 °FCool.17 mph91%30.11 "Hg19 mi
12:00 AM50 °FCool.13 mph94%30.11 "Hg19 mi
11:00 PM
Oct 25
51 °FCool.13 mph93%30.11 "Hg11 mi
10:00 PM50 °FCool.15 mph95%30.11 "Hg19 mi
9:00 PM50 °FCool.16 mph95%30.09 "Hg19 mi
8:00 PM51 °FCool.15 mph91%30.09 "Hg22 mi
7:00 PM51 °FCool.15 mph90%30.08 "Hg22 mi
6:00 PM53 °FCool.15 mph82%30.06 "Hg22 mi
5:00 PM54 °FCool.15 mph78%30.05 "Hg22 mi
4:00 PM54 °FCool.16 mph78%30.04 "Hg25 mi
3:00 PM56 °FCool.16 mph79%30.04 "Hg22 mi
1:00 PM53 °FCool.16 mph84%30.05 "Hg22 mi
12:00 PM53 °FCool.15 mph89%30.05 "Hg22 mi
11:00 AM51 °FCool.14 mph96%30.05 "Hg19 mi
10:00 AM49 °FCool.13 mph100%30.04 "Hg17 mi
9:00 AM47 °FCool.8 mph100%30.03 "Hg9 mi
8:00 AM46 °FCool.9 mph100%30.03 "Hg0 mi
7:00 AM45 °FCool.10 mph100%30.01 "Hg3 mi
6:00 AM44 °FQuite cool.8 mph100%30.01 "Hg3 mi
5:00 AM42 °FQuite cool.8 mph99%30.01 "Hg2 mi
4:00 AM42 °FQuite cool.7 mph98%30.00 "Hg5 mi
Weather by CustomWeather, © 2014

See weather overviewHow to use our weather pages